![]() |
EMODnet Physics ERDDAP
Easier access to scientific data |
log in|
Brought to you by EMODnet Physics |
| Dataset Title: | NDBC - Collection of dew point temperature (DEWT) TimeSeries - IN SITU MultiPointTimeSeriesObservation
|
| Institution: | NDBC (Dataset ID: TS_DEWT_NDBC) |
| Information: | Summary
| License
| FGDC
| ISO 19115
| Metadata
| Background
| Subset
| Data Access Form
| Make a graph
|
| Name | Last modified | Size | Description | |
|---|---|---|---|---|
| Parent Directory | - | - | ||
| 44040_TS_DEWT_012004.nc | 01-Jan-2025 19:34 | 1266060 | ||
| 44040_TS_DEWT_012005.nc | 01-Jan-2025 19:36 | 1020767 | ||
| 44040_TS_DEWT_012007.nc | 01-Jan-2025 19:39 | 452479 | ||
| 44040_TS_DEWT_012008.nc | 01-Jan-2025 19:41 | 1262268 | ||
| 44040_TS_DEWT_012010.nc | 01-Jan-2025 19:44 | 5159876 | ||
| 44040_TS_DEWT_012011.nc | 01-Jan-2025 19:46 | 1113935 | ||
| 44040_TS_DEWT_012012.nc | 01-Jan-2025 19:49 | 994100 | ||
| 44040_TS_DEWT_012013.nc | 01-Jan-2025 19:51 | 1103879 | ||
| 44040_TS_DEWT_012014.nc | 01-Jan-2025 19:53 | 1027456 | ||
| 44040_TS_DEWT_012015.nc | 01-Jan-2025 19:56 | 435356 | ||
| 44040_TS_DEWT_012018.nc | 01-Jan-2025 19:58 | 1114675 | ||
| 44040_TS_DEWT_012019.nc | 01-Jan-2025 20:00 | 5813377 | ||
| 44040_TS_DEWT_012020.nc | 01-Jan-2025 20:01 | 5310493 | ||
| 44040_TS_DEWT_012022.nc | 01-Jan-2025 20:03 | 1117103 | ||
| 44040_TS_DEWT_012023.nc | 01-Jan-2025 20:05 | 1143394 | ||
| 44040_TS_DEWT_022004.nc | 01-Jan-2025 19:34 | 1265212 | ||
| 44040_TS_DEWT_022005.nc | 01-Jan-2025 19:36 | 1117845 | ||
| 44040_TS_DEWT_022007.nc | 01-Jan-2025 19:39 | 1266257 | ||
| 44040_TS_DEWT_022008.nc | 01-Jan-2025 19:41 | 1025031 | ||
| 44040_TS_DEWT_022009.nc | 01-Jan-2025 19:42 | 5376034 | ||
| 44040_TS_DEWT_022010.nc | 01-Jan-2025 19:44 | 5319437 | ||
| 44040_TS_DEWT_022011.nc | 01-Jan-2025 19:46 | 1627571 | ||
| 44040_TS_DEWT_022012.nc | 01-Jan-2025 19:49 | 1626571 | ||
| 44040_TS_DEWT_022013.nc | 01-Jan-2025 19:51 | 1625965 | ||
| 44040_TS_DEWT_022014.nc | 01-Jan-2025 19:54 | 1625353 | ||
| 44040_TS_DEWT_022015.nc | 01-Jan-2025 19:56 | 1627652 | ||
| 44040_TS_DEWT_022017.nc | 01-Jan-2025 19:56 | 1626503 | ||
| 44040_TS_DEWT_022019.nc | 01-Jan-2025 20:00 | 1477368 | ||
| 44040_TS_DEWT_022020.nc | 01-Jan-2025 20:01 | 1627373 | ||
| 44040_TS_DEWT_022022.nc | 01-Jan-2025 20:04 | 1466046 | ||
| 44040_TS_DEWT_022023.nc | 01-Jan-2025 20:05 | 1627650 | ||
| 44040_TS_DEWT_032004.nc | 01-Jan-2025 19:34 | 1473466 | ||
| 44040_TS_DEWT_032005.nc | 01-Jan-2025 19:36 | 1470906 | ||
| 44040_TS_DEWT_032007.nc | 01-Jan-2025 19:39 | 1459758 | ||
| 44040_TS_DEWT_032008.nc | 01-Jan-2025 19:41 | 1474210 | ||
| 44040_TS_DEWT_032009.nc | 01-Jan-2025 19:42 | 1470601 | ||
| 44040_TS_DEWT_032010.nc | 01-Jan-2025 19:44 | 1470739 | ||
| 44040_TS_DEWT_032011.nc | 01-Jan-2025 19:47 | 1470531 | ||
| 44040_TS_DEWT_032012.nc | 01-Jan-2025 19:49 | 1473901 | ||
| 44040_TS_DEWT_032013.nc | 01-Jan-2025 19:51 | 1149959 | ||
| 44040_TS_DEWT_032014.nc | 01-Jan-2025 19:54 | 1470652 | ||
| 44040_TS_DEWT_032017.nc | 01-Jan-2025 19:56 | 1627780 | ||
| 44040_TS_DEWT_032020.nc | 01-Jan-2025 20:01 | 1627395 | ||
| 44040_TS_DEWT_032022.nc | 01-Jan-2025 20:04 | 1627494 | ||
| 44040_TS_DEWT_042004.nc | 01-Jan-2025 19:35 | 1626362 | ||
| 44040_TS_DEWT_042005.nc | 01-Jan-2025 19:36 | 1627516 | ||
| 44040_TS_DEWT_042007.nc | 01-Jan-2025 19:39 | 1627656 | ||
| 44040_TS_DEWT_042008.nc | 01-Jan-2025 19:41 | 1627502 | ||
| 44040_TS_DEWT_042009.nc | 01-Jan-2025 19:43 | 1478390 | ||
| 44040_TS_DEWT_042010.nc | 01-Jan-2025 19:45 | 1159913 | ||
| 44040_TS_DEWT_042011.nc | 01-Jan-2025 19:47 | 1627129 | ||
| 44040_TS_DEWT_042012.nc | 01-Jan-2025 19:49 | 1477968 | ||
| 44040_TS_DEWT_042013.nc | 01-Jan-2025 19:52 | 1477923 | ||
| 44040_TS_DEWT_042014.nc | 01-Jan-2025 19:54 | 1477835 | ||
| 44040_TS_DEWT_042017.nc | 01-Jan-2025 19:57 | 1477019 | ||
| 44040_TS_DEWT_042018.nc | 01-Jan-2025 19:58 | 1476718 | ||
| 44040_TS_DEWT_042020.nc | 01-Jan-2025 20:02 | 1459798 | ||
| 44040_TS_DEWT_042022.nc | 01-Jan-2025 20:04 | 1466930 | ||
| 44040_TS_DEWT_042023.nc | 19-Jan-2026 19:59 | 1476787 | ||
| 44040_TS_DEWT_052004.nc | 01-Jan-2025 19:35 | 1477744 | ||
| 44040_TS_DEWT_052005.nc | 01-Jan-2025 19:37 | 1469590 | ||
| 44040_TS_DEWT_052006.nc | 01-Jan-2025 19:38 | 1627830 | ||
| 44040_TS_DEWT_052007.nc | 01-Jan-2025 19:39 | 1627028 | ||
| 44040_TS_DEWT_052008.nc | 01-Jan-2025 19:41 | 1627590 | ||
| 44040_TS_DEWT_052009.nc | 01-Jan-2025 19:43 | 1627558 | ||
| 44040_TS_DEWT_052010.nc | 01-Jan-2025 19:45 | 1627585 | ||
| 44040_TS_DEWT_052011.nc | 01-Jan-2025 19:47 | 1627421 | ||
| 44040_TS_DEWT_052012.nc | 01-Jan-2025 19:50 | 1627727 | ||
| 44040_TS_DEWT_052013.nc | 01-Jan-2025 19:52 | 1143594 | ||
| 44040_TS_DEWT_052014.nc | 01-Jan-2025 19:54 | 1478618 | ||
| 44040_TS_DEWT_052017.nc | 01-Jan-2025 19:57 | 1477111 | ||
| 44040_TS_DEWT_052018.nc | 01-Jan-2025 19:58 | 1477843 | ||
| 44040_TS_DEWT_052020.nc | 01-Jan-2025 20:02 | 1476680 | ||
| 44040_TS_DEWT_052021.nc | 01-Jan-2025 20:03 | 1477870 | ||
| 44040_TS_DEWT_052022.nc | 01-Jan-2025 20:04 | 1477165 | ||
| 44040_TS_DEWT_052023.nc | 19-Jan-2026 19:59 | 1477989 | ||
| 44040_TS_DEWT_062004.nc | 01-Jan-2025 19:35 | 1477840 | ||
| 44040_TS_DEWT_062005.nc | 01-Jan-2025 19:37 | 1477230 | ||
| 44040_TS_DEWT_062006.nc | 01-Jan-2025 19:38 | 1476547 | ||
| 44040_TS_DEWT_062007.nc | 01-Jan-2025 19:40 | 1477541 | ||
| 44040_TS_DEWT_062008.nc | 01-Jan-2025 19:41 | 1477095 | ||
| 44040_TS_DEWT_062009.nc | 01-Jan-2025 19:43 | 1627502 | ||
| 44040_TS_DEWT_062010.nc | 01-Jan-2025 19:45 | 1627363 | ||
| 44040_TS_DEWT_062011.nc | 01-Jan-2025 19:47 | 1627702 | ||
| 44040_TS_DEWT_062012.nc | 01-Jan-2025 19:50 | 1626212 | ||
| 44040_TS_DEWT_062013.nc | 01-Jan-2025 19:52 | 1626271 | ||
| 44040_TS_DEWT_062014.nc | 01-Jan-2025 19:54 | 1468896 | ||
| 44040_TS_DEWT_062017.nc | 01-Jan-2025 19:57 | 1478541 | ||
| 44040_TS_DEWT_062018.nc | 01-Jan-2025 19:59 | 1625777 | ||
| 44040_TS_DEWT_062019.nc | 01-Jan-2025 20:00 | 1625178 | ||
| 44040_TS_DEWT_062020.nc | 01-Jan-2025 20:02 | 1626669 | ||
| 44040_TS_DEWT_062021.nc | 01-Jan-2025 20:03 | 1627827 | ||
| 44040_TS_DEWT_062022.nc | 01-Jan-2025 20:04 | 1626678 | ||
| 44040_TS_DEWT_062023.nc | 19-Jan-2026 19:59 | 1627796 | ||
| 44040_TS_DEWT_072004.nc | 01-Jan-2025 19:35 | 1627824 | ||
| 44040_TS_DEWT_072005.nc | 01-Jan-2025 19:37 | 1627342 | ||
| 44040_TS_DEWT_072006.nc | 01-Jan-2025 19:38 | 1478110 | ||
| 44040_TS_DEWT_072007.nc | 01-Jan-2025 19:40 | 1627747 | ||
| 44040_TS_DEWT_072008.nc | 01-Jan-2025 19:41 | 1625890 | ||
| 44040_TS_DEWT_072009.nc | 01-Jan-2025 19:43 | 1627699 | ||
| 44040_TS_DEWT_072010.nc | 01-Jan-2025 19:45 | 1627740 | ||
| 44040_TS_DEWT_072011.nc | 01-Jan-2025 19:48 | 1474420 | ||
| 44040_TS_DEWT_072012.nc | 01-Jan-2025 19:50 | 1477964 | ||
| 44040_TS_DEWT_072013.nc | 01-Jan-2025 19:52 | 1477027 | ||
| 44040_TS_DEWT_072014.nc | 01-Jan-2025 19:55 | 592366 | ||
| 44040_TS_DEWT_072017.nc | 01-Jan-2025 19:57 | 1477675 | ||
| 44040_TS_DEWT_072018.nc | 01-Jan-2025 19:59 | 1477873 | ||
| 44040_TS_DEWT_072019.nc | 01-Jan-2025 20:00 | 1477771 | ||
| 44040_TS_DEWT_072020.nc | 01-Jan-2025 20:02 | 1477857 | ||
| 44040_TS_DEWT_072021.nc | 01-Jan-2025 20:03 | 1477328 | ||
| 44040_TS_DEWT_072022.nc | 01-Jan-2025 20:04 | 1477828 | ||
| 44040_TS_DEWT_072023.nc | 19-Jan-2026 20:00 | 1474994 | ||
| 44040_TS_DEWT_082004.nc | 01-Jan-2025 19:35 | 1627767 | ||
| 44040_TS_DEWT_082005.nc | 01-Jan-2025 19:37 | 1627791 | ||
| 44040_TS_DEWT_082006.nc | 01-Jan-2025 19:38 | 1625459 | ||
| 44040_TS_DEWT_082008.nc | 01-Jan-2025 19:42 | 1627762 | ||
| 44040_TS_DEWT_082009.nc | 01-Jan-2025 19:43 | 1626069 | ||
| 44040_TS_DEWT_082010.nc | 01-Jan-2025 19:45 | 1627245 | ||
| 44040_TS_DEWT_082011.nc | 01-Jan-2025 19:48 | 1626916 | ||
| 44040_TS_DEWT_082012.nc | 01-Jan-2025 19:50 | 1627560 | ||
| 44040_TS_DEWT_082014.nc | 01-Jan-2025 19:55 | 1627255 | ||
| 44040_TS_DEWT_082017.nc | 01-Jan-2025 19:57 | 1627429 | ||
| 44040_TS_DEWT_082018.nc | 01-Jan-2025 19:59 | 1626455 | ||
| 44040_TS_DEWT_082019.nc | 01-Jan-2025 20:00 | 1477653 | ||
| 44040_TS_DEWT_082020.nc | 01-Jan-2025 20:02 | 1477168 | ||
| 44040_TS_DEWT_082021.nc | 01-Jan-2025 20:03 | 1477750 | ||
| 44040_TS_DEWT_082022.nc | 01-Jan-2025 20:04 | 1476175 | ||
| 44040_TS_DEWT_082023.nc | 19-Jan-2026 20:00 | 1477814 | ||
| 44040_TS_DEWT_092004.nc | 01-Jan-2025 19:35 | 1477689 | ||
| 44040_TS_DEWT_092005.nc | 01-Jan-2025 19:37 | 1476918 | ||
| 44040_TS_DEWT_092006.nc | 01-Jan-2025 19:38 | 1472756 | ||
| 44040_TS_DEWT_092007.nc | 01-Jan-2025 19:40 | 1477810 | ||
| 44040_TS_DEWT_092008.nc | 01-Jan-2025 19:42 | 1476370 | ||
| 44040_TS_DEWT_092009.nc | 01-Jan-2025 19:43 | 1627646 | ||
| 44040_TS_DEWT_092010.nc | 01-Jan-2025 19:45 | 1625421 | ||
| 44040_TS_DEWT_092011.nc | 01-Jan-2025 19:48 | 1626952 | ||
| 44040_TS_DEWT_092012.nc | 01-Jan-2025 19:50 | 1627617 | ||
| 44040_TS_DEWT_092013.nc | 01-Jan-2025 19:53 | 1627577 | ||
| 44040_TS_DEWT_092014.nc | 01-Jan-2025 19:55 | 1478508 | ||
| 44040_TS_DEWT_092017.nc | 01-Jan-2025 19:58 | 1626874 | ||
| 44040_TS_DEWT_092018.nc | 01-Jan-2025 19:59 | 1627698 | ||
| 44040_TS_DEWT_092019.nc | 01-Jan-2025 20:01 | 1627119 | ||
| 44040_TS_DEWT_092020.nc | 01-Jan-2025 20:02 | 1474646 | ||
| 44040_TS_DEWT_092021.nc | 01-Jan-2025 20:03 | 1286264 | ||
| 44040_TS_DEWT_092022.nc | 01-Jan-2025 20:05 | 5001590 | ||
| 44040_TS_DEWT_092023.nc | 19-Jan-2026 20:00 | 3341207 | ||
| 44040_TS_DEWT_102004.nc | 01-Jan-2025 19:35 | 424215 | ||
| 44040_TS_DEWT_102005.nc | 01-Jan-2025 19:37 | 2933195 | ||
| 44040_TS_DEWT_102006.nc | 01-Jan-2025 19:38 | 4942163 | ||
| 44040_TS_DEWT_102007.nc | 01-Jan-2025 19:40 | 4233518 | ||
| 44040_TS_DEWT_102008.nc | 01-Jan-2025 19:42 | 3275683 | ||
| 44040_TS_DEWT_102009.nc | 01-Jan-2025 19:44 | 4571609 | ||
| 44040_TS_DEWT_102010.nc | 01-Jan-2025 19:46 | 5084432 | ||
| 44040_TS_DEWT_102011.nc | 01-Jan-2025 19:48 | 5269192 | ||
| 44040_TS_DEWT_102012.nc | 01-Jan-2025 19:51 | 1652225 | ||
| 44040_TS_DEWT_102013.nc | 01-Jan-2025 19:53 | 5325964 | ||
| 44040_TS_DEWT_102014.nc | 01-Jan-2025 19:55 | 1821025 | ||
| 44040_TS_DEWT_102017.nc | 01-Jan-2025 19:58 | 5009904 | ||
| 44040_TS_DEWT_102018.nc | 01-Jan-2025 19:59 | 1819005 | ||
| 44040_TS_DEWT_102019.nc | 01-Jan-2025 20:01 | 5651114 | ||
| 44040_TS_DEWT_102020.nc | 01-Jan-2025 20:02 | 1654481 | ||
| 44040_TS_DEWT_102021.nc | 01-Jan-2025 20:03 | 4753422 | ||
| 44040_TS_DEWT_102022.nc | 01-Jan-2025 20:05 | 645903 | ||
| 44040_TS_DEWT_112004.nc | 01-Jan-2025 19:36 | 1818248 | ||
| 44040_TS_DEWT_112005.nc | 01-Jan-2025 19:37 | 5491172 | ||
| 44040_TS_DEWT_112006.nc | 01-Jan-2025 19:38 | 678766 | ||
| 44040_TS_DEWT_112007.nc | 01-Jan-2025 19:40 | 1674246 | ||
| 44040_TS_DEWT_112008.nc | 01-Jan-2025 19:42 | 1641327 | ||
| 44040_TS_DEWT_112009.nc | 01-Jan-2025 19:44 | 5700101 | ||
| 44040_TS_DEWT_112010.nc | 01-Jan-2025 19:46 | 1823802 | ||
| 44040_TS_DEWT_112011.nc | 01-Jan-2025 19:48 | 1296426 | ||
| 44040_TS_DEWT_112012.nc | 01-Jan-2025 19:51 | 5607225 | ||
| 44040_TS_DEWT_112013.nc | 01-Jan-2025 19:53 | 4500966 | ||
| 44040_TS_DEWT_112014.nc | 01-Jan-2025 19:55 | 436695 | ||
| 44040_TS_DEWT_112017.nc | 01-Jan-2025 19:58 | 428669 | ||
| 44040_TS_DEWT_112018.nc | 01-Jan-2025 19:59 | 436490 | ||
| 44040_TS_DEWT_112019.nc | 01-Jan-2025 20:01 | 420599 | ||
| 44040_TS_DEWT_112021.nc | 01-Jan-2025 20:03 | 438946 | ||
| 44040_TS_DEWT_112022.nc | 01-Jan-2025 20:05 | 443437 | ||
| 44040_TS_DEWT_122004.nc | 01-Jan-2025 19:36 | 443388 | ||
| 44040_TS_DEWT_122006.nc | 01-Jan-2025 19:39 | 441152 | ||
| 44040_TS_DEWT_122007.nc | 01-Jan-2025 19:40 | 444389 | ||
| 44040_TS_DEWT_122009.nc | 01-Jan-2025 19:44 | 433835 | ||
| 44040_TS_DEWT_122010.nc | 01-Jan-2025 19:46 | 441439 | ||
| 44040_TS_DEWT_122011.nc | 01-Jan-2025 19:49 | 442412 | ||
| 44040_TS_DEWT_122012.nc | 01-Jan-2025 19:51 | 444102 | ||
| 44040_TS_DEWT_122013.nc | 01-Jan-2025 19:53 | 428146 | ||
| 44040_TS_DEWT_122014.nc | 01-Jan-2025 19:56 | 442593 | ||
| 44040_TS_DEWT_122017.nc | 01-Jan-2025 19:58 | 428475 | ||
| 44040_TS_DEWT_122018.nc | 01-Jan-2025 20:00 | 446708 | ||
| 44040_TS_DEWT_122019.nc | 01-Jan-2025 20:01 | 445471 | ||
| 44040_TS_DEWT_122021.nc | 01-Jan-2025 20:03 | 439633 | ||
| 44040_TS_DEWT_122022.nc | 01-Jan-2025 20:05 | 435918 | ||